Flag for Chile Weather past 2 weeks in Santiago, Chile

Now
54 °F

Passing clouds.


Feels Like: 54 °F
Forecast: 49 / 72 °F
Wind: 2 mph from North

Location: Pudahuel

Current Time: Jul 31, 2014 at 10:05:50 PM

Latest Report: Jul 31, 2014 at 9:00 PM


Visibility: 2 mi

Pressure: 30.09 "Hg

Humidity: 82%

Dew point: 48 °F

Location of SantiagoLocation

Historic Weather in Santiago — Graph

°F

Santiago temperature yesterday

Maximum temperature yesterday: 61 °F (at 12:00 PM)
Minimum temperature yesterday: 52 °F (at 12:00 AM)
Average temperature yesterday: 55 °F

Past Weeks' High & Low Weather Summary

 TemperatureHumidityPressure
High73 °F (Jul 18, 4:00 PM)94% (Jul 31, 3:00 AM)30.36 "Hg (Jul 31, 3:00 AM)
Low30 °F (Jul 24, 8:00 AM)29% (Jul 25, 3:00 PM)29.92 "Hg (Jul 19, 3:00 PM)
Average50 °F71%30.12 "Hg
* Reported Jul 16 9:00 PM — Jul 31 9:00 PM, Santiago, Weather by CustomWeather, © 2014

Note: Actual official high and low records may vary slightly from our data, if they occured in-between our weather recording intervals... More about our weather records

Advertising

Santiago weather history for previous 24 hours

 ConditionsComfort  
Time TempWeatherWind HumidityBarometerVisibility
9:00 PM
Jul 31
54 °FPassing clouds.2 mph82%30.09 "Hg2 mi
8:00 PM54 °FFog.3 mph82%30.12 "Hg2 mi
7:00 PM54 °FOvercast.3 mph88%30.12 "Hg2 mi
6:00 PM55 °FFog.5 mph82%30.12 "Hg2 mi
5:00 PM55 °FPartly sunny.7 mph82%30.12 "Hg2 mi
4:00 PM55 °FMore clouds than sun.5 mph82%30.09 "Hg2 mi
3:00 PM55 °FMore clouds than sun.3 mph82%30.09 "Hg2 mi
2:00 PM55 °FOvercast.1 mph82%30.09 "Hg2 mi
1:00 PM55 °FMore clouds than sun.2 mph82%30.12 "Hg2 mi
12:00 PM54 °FFog.5 mph88%30.12 "Hg1 mi
11:00 AM54 °FFog.6 mph88%30.15 "Hg1 mi
10:00 AM52 °FFog.5 mph88%30.12 "Hg2 mi
9:00 AM50 °FCool.2 mph94%30.12 "Hg1 mi
8:00 AM52 °FFog.5 mph88%30.12 "Hg2 mi
7:00 AM50 °FPartly sunny.1 mph88%30.12 "Hg3 mi
6:00 AM52 °FPassing clouds.5 mph88%30.09 "Hg3 mi
5:00 AM52 °FFog.2 mph88%30.12 "Hg2 mi
4:00 AM50 °FFog.2 mph94%30.09 "Hg2 mi
3:00 AM50 °FFog.3 mph94%30.09 "Hg2 mi
2:00 AM50 °FPassing clouds.3 mph88%30.09 "Hg3 mi
1:00 AM52 °FPassing clouds.2 mph88%30.09 "Hg5 mi
12:00 AM52 °FPassing clouds.2 mph88%30.12 "Hg5 mi
11:00 PM
Jul 30
54 °FOvercast.5 mph82%30.12 "HgN/A
10:00 PM55 °FPassing clouds.3 mph77%30.12 "HgN/A
Weather by CustomWeather, © 2014

See weather overviewHow to use our weather pages